Time,TemperatureF,DewpointF,PressureIn,WindDirection,WindDirectionDegrees,WindSpeedMPH,WindSpeedGustMPH,Humidity,HourlyPrecipIn,Conditions,Clouds,dailyrainin,SolarRadiationWatts/m^2,SoftwareType,DateUTC
2013-01-20 00:12:00,12.0,8.0,-100.00,SSW,201,0.0,0.0,83,0.00,,,0.00,0.000000,,2013-01-20 08:12:00,
2013-01-20 00:22:00,12.0,8.0,-100.00,SSW,201,0.0,0.0,83,0.00,,,0.00,0.000000,,2013-01-20 08:22:00,
2013-01-20 00:32:00,12.0,8.0,-100.00,SSW,201,0.0,0.0,83,0.00,,,0.00,0.000000,,2013-01-20 08:32:00,
2013-01-20 00:42:00,12.0,8.0,-100.00,SSW,201,0.0,0.0,83,0.00,,,0.00,0.000000,,2013-01-20 08:42:00,
2013-01-20 01:12:00,9.0,6.0,-100.00,SW,235,0.0,0.0,87,0.00,,,0.00,0.000000,,2013-01-20 09:12:00,
2013-01-20 01:22:00,9.0,6.0,-100.00,SW,235,0.0,0.0,87,0.00,,,0.00,0.000000,,2013-01-20 09:22:00,
2013-01-20 01:33:00,9.0,6.0,-100.00,SW,235,0.0,0.0,87,0.00,,,0.00,0.000000,,2013-01-20 09:33:00,
2013-01-20 01:42:00,9.0,6.0,-100.00,SW,235,0.0,0.0,87,0.00,,,0.00,0.000000,,2013-01-20 09:42:00,
2013-01-20 02:12:00,9.0,6.0,-100.00,SW,227,0.0,0.0,87,0.00,,,-99.99,0.000000,,2013-01-20 10:12:00,
2013-01-20 02:22:00,9.0,6.0,-100.00,SW,227,0.0,0.0,87,0.00,,,-99.99,0.000000,,2013-01-20 10:22:00,
2013-01-20 02:32:00,9.0,6.0,-100.00,SW,227,0.0,0.0,87,0.00,,,-99.99,0.000000,,2013-01-20 10:32:00,
2013-01-20 02:42:00,9.0,6.0,-100.00,SW,227,0.0,0.0,87,0.00,,,-99.99,0.000000,,2013-01-20 10:42:00,
2013-01-20 03:12:00,8.0,5.0,-100.00,SW,234,0.0,3.0,86,0.00,,,0.00,0.000000,,2013-01-20 11:12:00,
2013-01-20 03:22:00,8.0,5.0,-100.00,SW,234,0.0,3.0,86,0.00,,,0.00,0.000000,,2013-01-20 11:22:00,
2013-01-20 03:32:00,8.0,5.0,-100.00,SW,234,0.0,3.0,86,0.00,,,0.00,0.000000,,2013-01-20 11:32:00,
2013-01-20 03:42:00,8.0,5.0,-100.00,SW,234,0.0,3.0,86,0.00,,,0.00,0.000000,,2013-01-20 11:42:00,
2013-01-20 04:12:00,7.0,3.0,-100.00,SSW,213,0.0,0.0,84,0.00,,,0.00,0.000000,,2013-01-20 12:12:00,
2013-01-20 04:22:00,7.0,3.0,-100.00,SSW,213,0.0,0.0,84,0.00,,,0.00,0.000000,,2013-01-20 12:22:00,
2013-01-20 04:33:00,7.0,3.0,-100.00,SSW,213,0.0,0.0,84,0.00,,,0.00,0.000000,,2013-01-20 12:33:00,
2013-01-20 04:42:00,7.0,3.0,-100.00,SSW,213,0.0,0.0,84,0.00,,,0.00,0.000000,,2013-01-20 12:42:00,
2013-01-20 05:12:00,6.0,2.0,-100.00,WSW,244,0.0,0.0,85,0.00,,,0.00,0.000000,,2013-01-20 13:12:00,
2013-01-20 05:23:00,6.0,2.0,-100.00,WSW,244,0.0,0.0,85,0.00,,,0.00,0.000000,,2013-01-20 13:23:00,
2013-01-20 05:33:00,6.0,2.0,-100.00,WSW,244,0.0,0.0,85,0.00,,,0.00,0.000000,,2013-01-20 13:33:00,
2013-01-20 05:42:00,6.0,2.0,-100.00,WSW,244,0.0,0.0,85,0.00,,,0.00,0.000000,,2013-01-20 13:42:00,
2013-01-20 06:12:00,7.0,4.0,-100.00,East,82,0.0,0.0,87,0.00,,,0.00,0.000000,,2013-01-20 14:12:00,
2013-01-20 06:22:00,7.0,4.0,-100.00,East,82,0.0,0.0,87,0.00,,,0.00,0.000000,,2013-01-20 14:22:00,
2013-01-20 06:32:00,7.0,4.0,-100.00,East,82,0.0,0.0,87,0.00,,,0.00,0.000000,,2013-01-20 14:32:00,
2013-01-20 06:42:00,7.0,4.0,-100.00,East,82,0.0,0.0,87,0.00,,,0.00,0.000000,,2013-01-20 14:42:00,
2013-01-20 07:12:00,5.0,1.0,-100.00,South,181,0.0,3.0,84,0.00,,,0.00,0.000000,,2013-01-20 15:12:00,
2013-01-20 07:22:00,5.0,1.0,-100.00,South,181,0.0,3.0,84,0.00,,,0.00,0.000000,,2013-01-20 15:22:00,
2013-01-20 07:33:00,5.0,1.0,-100.00,South,181,0.0,3.0,84,0.00,,,0.00,0.000000,,2013-01-20 15:33:00,
2013-01-20 07:42:00,5.0,1.0,-100.00,South,181,0.0,3.0,84,0.00,,,0.00,0.000000,,2013-01-20 15:42:00,
2013-01-20 08:12:00,7.0,3.0,-100.00,SW,225,0.0,0.0,85,0.00,,,0.00,9.000000,,2013-01-20 16:12:00,
2013-01-20 08:22:00,7.0,3.0,-100.00,SW,225,0.0,0.0,85,0.00,,,0.00,9.000000,,2013-01-20 16:22:00,
2013-01-20 08:33:00,7.0,3.0,-100.00,SW,225,0.0,0.0,85,0.00,,,0.00,9.000000,,2013-01-20 16:33:00,
2013-01-20 08:42:00,7.0,3.0,-100.00,SW,225,0.0,0.0,85,0.00,,,0.00,9.000000,,2013-01-20 16:42:00,
2013-01-20 09:12:00,20.0,16.0,-100.00,SW,233,0.0,6.0,84,0.00,,,0.00,114.000000,,2013-01-20 17:12:00,
2013-01-20 09:42:00,20.0,16.0,-100.00,SW,233,0.0,6.0,84,0.00,,,0.00,114.000000,,2013-01-20 17:42:00,
2013-01-20 10:12:00,32.0,20.0,-100.00,North,349,0.0,0.0,60,0.00,,,-99.99,318.000000,,2013-01-20 18:12:00,
2013-01-20 10:23:00,32.0,20.0,-100.00,North,349,0.0,0.0,60,0.00,,,-99.99,318.000000,,2013-01-20 18:23:00,
2013-01-20 11:12:00,32.0,18.0,-100.00,ENE,66,0.0,8.0,56,-99.99,,,0.00,451.000000,,2013-01-20 19:12:00,
2013-01-20 11:22:00,32.0,18.0,-100.00,ENE,66,0.0,8.0,56,-99.99,,,0.00,451.000000,,2013-01-20 19:22:00,
2013-01-20 12:12:00,33.0,16.0,-100.00,East,85,0.0,7.0,49,0.00,,,0.00,527.000000,,2013-01-20 20:12:00,
2013-01-20 12:22:00,33.0,16.0,-100.00,East,85,0.0,7.0,49,0.00,,,0.00,527.000000,,2013-01-20 20:22:00,
2013-01-20 12:33:00,33.0,16.0,-100.00,East,85,0.0,7.0,49,0.00,,,0.00,527.000000,,2013-01-20 20:33:00,
2013-01-20 12:42:00,33.0,16.0,-100.00,East,85,0.0,7.0,49,0.00,,,0.00,527.000000,,2013-01-20 20:42:00,
2013-01-20 13:13:00,36.0,16.0,-100.00,NE,44,4.0,8.0,44,0.00,,,0.00,547.000000,,2013-01-20 21:13:00,
2013-01-20 13:22:00,36.0,16.0,-100.00,NE,44,4.0,8.0,44,0.00,,,0.00,547.000000,,2013-01-20 21:22:00,
2013-01-20 13:33:00,36.0,16.0,-100.00,NE,44,4.0,8.0,44,0.00,,,0.00,547.000000,,2013-01-20 21:33:00,
2013-01-20 13:42:00,36.0,16.0,-100.00,NE,44,4.0,8.0,44,0.00,,,0.00,547.000000,,2013-01-20 21:42:00,
2013-01-20 14:12:00,34.0,14.0,-100.00,ENE,62,2.0,8.0,44,0.00,,,-99.99,514.000000,,2013-01-20 22:12:00,
2013-01-20 14:22:00,34.0,14.0,-100.00,ENE,62,2.0,8.0,44,0.00,,,-99.99,514.000000,,2013-01-20 22:22:00,
2013-01-20 14:33:00,34.0,14.0,-100.00,ENE,62,2.0,8.0,44,0.00,,,-99.99,514.000000,,2013-01-20 22:33:00,
2013-01-20 14:42:00,34.0,14.0,-100.00,ENE,62,2.0,8.0,44,0.00,,,-99.99,514.000000,,2013-01-20 22:42:00,
2013-01-20 15:12:00,38.0,16.0,-100.00,NE,50,3.0,7.0,40,0.00,,,0.00,422.000000,,2013-01-20 23:12:00,
2013-01-20 15:23:00,38.0,16.0,-100.00,NE,50,3.0,7.0,40,0.00,,,0.00,422.000000,,2013-01-20 23:23:00,
2013-01-20 15:33:00,38.0,16.0,-100.00,NE,50,3.0,7.0,40,0.00,,,0.00,422.000000,,2013-01-20 23:33:00,
2013-01-20 15:42:00,38.0,16.0,-100.00,NE,50,3.0,7.0,40,0.00,,,0.00,422.000000,,2013-01-20 23:42:00,
2013-01-20 16:13:00,37.0,16.0,-100.00,NE,56,4.0,8.0,41,0.00,,,-99.99,283.000000,,2013-01-21 00:13:00,
2013-01-20 16:22:00,37.0,16.0,-100.00,NE,56,4.0,8.0,41,0.00,,,-99.99,283.000000,,2013-01-21 00:22:00,
2013-01-20 16:33:00,37.0,16.0,-100.00,NE,56,4.0,8.0,41,0.00,,,-99.99,283.000000,,2013-01-21 00:33:00,
2013-01-20 16:42:00,37.0,16.0,-100.00,NE,56,4.0,8.0,41,0.00,,,-99.99,283.000000,,2013-01-21 00:42:00,
2013-01-20 17:12:00,33.0,13.0,-100.00,East,83,0.0,8.0,44,0.00,,,0.00,115.000000,,2013-01-21 01:12:00,
2013-01-20 17:22:00,33.0,13.0,-100.00,East,83,0.0,8.0,44,0.00,,,0.00,115.000000,,2013-01-21 01:22:00,
2013-01-20 17:32:00,33.0,13.0,-100.00,East,83,0.0,8.0,44,0.00,,,0.00,115.000000,,2013-01-21 01:32:00,
2013-01-20 17:42:00,33.0,13.0,-100.00,East,83,0.0,8.0,44,0.00,,,0.00,115.000000,,2013-01-21 01:42:00,
2013-01-20 18:12:00,27.0,15.0,-100.00,East,84,1.0,4.0,59,0.00,,,-99.99,4.000000,,2013-01-21 02:12:00,
2013-01-20 18:22:00,27.0,15.0,-100.00,East,84,1.0,4.0,59,0.00,,,-99.99,4.000000,,2013-01-21 02:22:00,
2013-01-20 18:33:00,27.0,15.0,-100.00,East,84,1.0,4.0,59,0.00,,,-99.99,4.000000,,2013-01-21 02:33:00,
2013-01-20 18:42:00,27.0,15.0,-100.00,East,84,1.0,4.0,59,0.00,,,-99.99,4.000000,,2013-01-21 02:42:00,
2013-01-20 19:12:00,19.0,11.0,-100.00,NE,51,0.0,3.0,70,0.00,,,0.00,0.000000,,2013-01-21 03:12:00,
2013-01-20 19:23:00,19.0,11.0,-100.00,NE,51,0.0,3.0,70,0.00,,,0.00,0.000000,,2013-01-21 03:23:00,
2013-01-20 19:33:00,19.0,11.0,-100.00,NE,51,0.0,3.0,70,0.00,,,0.00,0.000000,,2013-01-21 03:33:00,
2013-01-20 19:42:00,19.0,11.0,-100.00,NE,51,0.0,3.0,70,0.00,,,0.00,0.000000,,2013-01-21 03:42:00,
2013-01-20 20:12:00,19.0,11.0,-100.00,SE,141,0.0,3.0,72,0.00,,,0.00,0.000000,,2013-01-21 04:12:00,
2013-01-20 20:22:00,19.0,11.0,-100.00,SE,141,0.0,3.0,72,0.00,,,0.00,0.000000,,2013-01-21 04:22:00,
2013-01-20 20:32:00,19.0,11.0,-100.00,SE,141,0.0,3.0,72,0.00,,,0.00,0.000000,,2013-01-21 04:32:00,
2013-01-20 20:42:00,19.0,11.0,-100.00,SE,141,0.0,3.0,72,0.00,,,0.00,0.000000,,2013-01-21 04:42:00,
2013-01-20 21:12:00,16.0,11.0,-100.00,SW,224,0.0,4.0,80,0.00,,,0.00,0.000000,,2013-01-21 05:12:00,
2013-01-20 21:22:00,16.0,11.0,-100.00,SW,224,0.0,4.0,80,0.00,,,0.00,0.000000,,2013-01-21 05:22:00,
2013-01-20 21:33:00,16.0,11.0,-100.00,SW,224,0.0,4.0,80,0.00,,,0.00,0.000000,,2013-01-21 05:33:00,
2013-01-20 21:42:00,16.0,11.0,-100.00,SW,224,0.0,4.0,80,0.00,,,0.00,0.000000,,2013-01-21 05:42:00,
2013-01-20 22:12:00,18.0,12.0,-100.00,ENE,68,2.0,6.0,78,0.00,,,0.00,0.000000,,2013-01-21 06:12:00,
2013-01-20 22:23:00,18.0,12.0,-100.00,ENE,68,2.0,6.0,78,0.00,,,0.00,0.000000,,2013-01-21 06:23:00,
2013-01-20 22:32:00,18.0,12.0,-100.00,ENE,68,2.0,6.0,78,0.00,,,0.00,0.000000,,2013-01-21 06:32:00,
2013-01-20 22:43:00,18.0,12.0,-100.00,ENE,68,2.0,6.0,78,0.00,,,0.00,0.000000,,2013-01-21 06:43:00,
2013-01-20 23:12:00,14.0,10.0,-100.00,SW,214,0.0,3.0,82,0.00,,,-99.99,0.000000,,2013-01-21 07:12:00,
2013-01-20 23:22:00,14.0,10.0,-100.00,SW,214,0.0,3.0,82,0.00,,,-99.99,0.000000,,2013-01-21 07:22:00,
2013-01-20 23:33:00,14.0,10.0,-100.00,SW,214,0.0,3.0,82,0.00,,,-99.99,0.000000,,2013-01-21 07:33:00,
2013-01-20 23:42:00,14.0,10.0,-100.00,SW,214,0.0,3.0,82,0.00,,,-99.99,0.000000,,2013-01-21 07:42:00,